Spencer, IA

3:16 AM CDT on April 20, 2018 (GMT -0500)
Spencer Municipal

Weather History for KSPW - September, 2013

Change the Weather History Date:

Saturday, September 7, 2013

  Actual Average Record
Temperature  
Mean Temperature 80 °F -  
Max Temperature 93 °F 79 °F 95 °F (1971)
Min Temperature 66 °F 54 °F 36 °F (1986)
Cooling Degree Days 14    
Growing Degree Days 30 (Base 50)    
Moisture  
Dew Point 68 °F    
Average Humidity 71    
Maximum Humidity 90    
Minimum Humidity 44    
Precipitation  
Precipitation 0.00 in - - ()
Sea Level Pressure  
Sea Level Pressure 29.90 in    
Wind  
Wind Speed 6 mph (NE)    
Max Wind Speed 16 mph    
Max Gust Speed -    
Visibility 9 miles    
Events      
Averages and records for this station are not official NWS values.
T = Trace of Precipitation, MM = Missing Value Source: NWS Daily Summary

Daily Weather History Graph

Daily Weather History Graph

Search for Another Location

Airport or City:

Astronomy

Sep. 07, 2013 Rise Set
Actual Time 6:51 AM CDT 7:44 PM CDT
Civil Twilight 6:22 AM CDT 8:13 PM CDT
Nautical Twilight 5:48 AM CDT 8:47 PM CDT
Astronomical Twilight 5:12 AM CDT 9:23 PM CDT
Moon 9:12 AM CDT (9/7) 8:37 PM CDT (9/7)
Length of Visible Light 13h 50m
Length of Day
12h 52m
Waxing Crescent, 5% of the Moon is Illuminated
Sep 7
Waxing Crescent
Sep 12
First Quarter
Sep 19
Full
Sep 26
Last Quarter
Oct 4
New

Hourly Weather History & Observations

Time (CDT) Temp. Heat Index Dew Point Humidity Pressure Visibility Wind Dir Wind Speed Gust Speed Precip Events Conditions
12:53 AM 72.0 °F - 66.0 °F 81% 29.89 in 10.0 mi SSE 3.5 mph - N/A   Clear
1:53 AM 71.1 °F - 66.0 °F 84% 29.89 in 10.0 mi ESE 4.6 mph - N/A   Clear
2:53 AM 69.1 °F - 66.0 °F 90% 29.88 in 8.0 mi East 3.5 mph - N/A   Clear
3:53 AM 68.0 °F - 64.9 °F 90% 29.87 in 7.0 mi East 3.5 mph - N/A   Clear
4:53 AM 66.9 °F - 64.0 °F 90% 29.88 in 6.0 mi ENE 4.6 mph - N/A   Clear
5:53 AM 66.9 °F - 64.0 °F 90% 29.87 in 6.0 mi East 3.5 mph - N/A   Clear
6:53 AM 66.9 °F - 64.0 °F 90% 29.88 in 6.0 mi ENE 3.5 mph - N/A   Clear
7:53 AM 69.1 °F - 64.9 °F 87% 29.91 in 6.0 mi Calm Calm - N/A   Clear
8:53 AM 73.9 °F - 66.0 °F 76% 29.90 in 9.0 mi Calm Calm - N/A   Clear
9:53 AM 81.0 °F 83.3 °F 66.9 °F 62% 29.88 in 10.0 mi NNE 10.4 mph - N/A   Clear
10:53 AM 86.0 °F 90.1 °F 69.1 °F 57% 29.88 in 10.0 mi NNE 12.7 mph - N/A   Clear
11:53 AM 89.1 °F 92.9 °F 68.0 °F 50% 29.89 in 10.0 mi NE 12.7 mph - N/A   Clear
12:53 PM 86.0 °F 89.4 °F 68.0 °F 55% 29.90 in 10.0 mi ENE 9.2 mph - N/A   Mostly Cloudy
1:53 PM 89.1 °F 94.1 °F 70.0 °F 53% 29.93 in 10.0 mi Calm Calm - 0.00 in   Scattered Clouds
2:53 PM 91.0 °F 95.6 °F 69.1 °F 48% 29.89 in 10.0 mi NE 13.8 mph - N/A   Clear
3:53 PM 93.0 °F 97.4 °F 68.0 °F 44% 29.88 in 10.0 mi NE 11.5 mph - N/A   Clear
4:53 PM 91.0 °F 97.6 °F 71.1 °F 52% 29.89 in 10.0 mi NNE 16.1 mph - N/A   Clear
5:53 PM 90.0 °F 95.4 °F 70.0 °F 52% 29.91 in 10.0 mi NNE 10.4 mph - N/A   Clear
6:53 PM 87.1 °F 92.8 °F 71.1 °F 59% 29.91 in 10.0 mi NE 11.5 mph - N/A   Mostly Cloudy
7:53 PM 82.0 °F 86.3 °F 71.1 °F 69% 29.92 in 10.0 mi NE 6.9 mph - N/A   Clear
8:53 PM 78.1 °F - 70.0 °F 76% 29.93 in 10.0 mi NE 4.6 mph - N/A   Clear
9:53 PM 75.0 °F - 70.0 °F 84% 29.94 in 9.0 mi Calm Calm - N/A   Clear
10:53 PM 75.0 °F - 70.0 °F 84% 29.94 in 8.0 mi NNE 6.9 mph - N/A   Clear
11:53 PM 75.0 °F - 71.1 °F 87% 29.94 in 7.0 mi NE 5.8 mph - N/A   Clear